Weather History for Port Huron, MI

Change the Weather History Date:

Thursday, January 3, 2013

  Actual Average (KMTC) Record (KMTC)
Temperature  
Mean Temperature 26 °F -  
Max Temperature 30 °F 31 °F 59 °F (1998)
Min Temperature 21 °F 19 °F -2 °F (2014)
Degree Days  
Heating Degree Days 40    
Moisture  
Dew Point 19 °F    
Average Humidity 74    
Maximum Humidity 86    
Minimum Humidity 58    
Precipitation  
Precipitation 0.00 in - - ()
Sea Level Pressure  
Sea Level Pressure 30.08 in    
Wind  
Wind Speed 5 mph (SW)    
Max Wind Speed 12 mph    
Max Gust Speed 17 mph    
Visibility 9 miles    
Events Snow    
Averages and records for this station are not official NWS values.
T = Trace of Precipitation, MM = Missing Value Source: NWS Daily Summary

Daily Weather History Graph

Daily Weather History Graph

Search for Another Location

Airport:

Trip Planner

Search our weather history database for the weather conditions in past years. The results will help you decide how hot, cold, wet, or windy it might be!

Date:

Astronomy

Jan. 03, 2013 Rise Set
Actual Time 8:01 AM EST 5:08 PM EST
Civil Twilight 7:29 AM EST 5:40 PM EST
Nautical Twilight 6:53 AM EST 6:16 PM EST
Astronomical Twilight 6:19 AM EST 6:50 PM EST
Moon 11:53 PM EST (1/3) 11:02 AM EST (1/3)
Length of Visible Light 10h 11m
Length of Day
9h 07m
Waning Gibbous, 65% of the Moon is Illuminated
Jan 3
Waning Gibbous
Jan 4
Last Quarter
Jan 11
New
Jan 18
First Quarter
Jan 26
Full

Hourly Weather History & Observations

Time (EST) Temp. Windchill Dew Point Humidity Pressure Visibility Wind Dir Wind Speed Gust Speed Precip Events Conditions
12:17 AM 24.8 °F 20.5 °F 19.4 °F 80% 30.14 in 10.0 mi South 3.5 mph - N/A   Overcast
12:37 AM 24.8 °F 20.5 °F 19.4 °F 80% 30.14 in 10.0 mi South 3.5 mph - N/A   Overcast
12:57 AM 24.8 °F 20.5 °F 19.4 °F 80% 30.14 in 10.0 mi SSW 3.5 mph - N/A   Overcast
1:17 AM 24.8 °F 20.5 °F 19.4 °F 80% 30.14 in 10.0 mi SSW 3.5 mph - N/A   Overcast
1:37 AM 24.8 °F 19.1 °F 19.4 °F 80% 30.14 in 10.0 mi SSW 4.6 mph - N/A   Overcast
1:57 AM 24.8 °F 19.1 °F 19.4 °F 80% 30.13 in 10.0 mi SSW 4.6 mph - N/A   Overcast
2:17 AM 24.8 °F 20.5 °F 19.4 °F 80% 30.14 in 10.0 mi SSW 3.5 mph - N/A   Overcast
2:37 AM 24.8 °F - 19.4 °F 80% 30.14 in 10.0 mi Calm Calm - N/A   Overcast
2:57 AM 24.8 °F 20.5 °F 19.4 °F 80% 30.14 in 10.0 mi SW 3.5 mph - N/A   Overcast
3:17 AM 24.8 °F 17.9 °F 19.4 °F 80% 30.14 in 10.0 mi SW 5.8 mph - N/A   Overcast
3:37 AM 24.8 °F 16.9 °F 19.4 °F 80% 30.13 in 10.0 mi SSW 6.9 mph - N/A   Overcast
3:57 AM 24.8 °F 17.9 °F 19.4 °F 80% 30.12 in 10.0 mi SW 5.8 mph - N/A   Overcast
4:17 AM 23.0 °F 14.7 °F 19.4 °F 86% 30.11 in 10.0 mi SW 6.9 mph - N/A   Overcast
4:37 AM 23.0 °F 17.0 °F 19.4 °F 86% 30.10 in 10.0 mi SSW 4.6 mph - N/A   Overcast
4:57 AM 23.0 °F 17.0 °F 17.6 °F 80% 30.10 in 10.0 mi SW 4.6 mph - N/A   Overcast
5:17 AM 23.0 °F 17.0 °F 17.6 °F 80% 30.09 in 10.0 mi SSW 4.6 mph - N/A   Overcast
5:37 AM 23.0 °F 14.7 °F 17.6 °F 80% 30.08 in 10.0 mi SSW 6.9 mph - N/A   Overcast
5:57 AM 23.0 °F 18.4 °F 17.6 °F 80% 30.07 in 10.0 mi SW 3.5 mph - N/A   Overcast
6:17 AM 23.0 °F 17.0 °F 17.6 °F 80% 30.07 in 10.0 mi SW 4.6 mph - N/A   Overcast
6:37 AM 23.0 °F 17.0 °F 12.2 °F 63% 30.07 in 10.0 mi SW 4.6 mph - N/A   Overcast
6:57 AM 23.0 °F 14.7 °F 10.4 °F 59% 30.07 in 10.0 mi SW 6.9 mph - N/A   Overcast
7:17 AM 21.2 °F 11.7 °F 10.4 °F 63% 30.06 in 10.0 mi SSW 8.1 mph - N/A   Overcast
7:37 AM 21.2 °F 13.6 °F 10.4 °F 63% 30.05 in 10.0 mi SSW 5.8 mph - N/A   Overcast
7:57 AM 21.2 °F 10.1 °F 10.4 °F 63% 30.05 in 10.0 mi South 10.4 mph - N/A   Overcast
8:17 AM 21.2 °F 12.6 °F 8.6 °F 58% 30.06 in 10.0 mi SSW 6.9 mph - N/A   Overcast
8:37 AM 21.2 °F 12.6 °F 8.6 °F 58% 30.06 in 10.0 mi SW 6.9 mph - N/A   Overcast
8:57 AM 21.2 °F 11.7 °F 10.4 °F 63% 30.06 in 10.0 mi SW 8.1 mph - N/A   Overcast
9:17 AM 21.2 °F 13.6 °F 10.4 °F 63% 30.05 in 10.0 mi SSW 5.8 mph - N/A   Overcast
9:37 AM 21.2 °F 12.6 °F 10.4 °F 63% 30.06 in 10.0 mi SW 6.9 mph - N/A   Overcast
9:57 AM 21.2 °F 13.6 °F 10.4 °F 63% 30.07 in 10.0 mi SW 5.8 mph - N/A   Overcast
10:17 AM 21.2 °F 14.9 °F 12.2 °F 68% 30.07 in 10.0 mi SSW 4.6 mph - N/A   Overcast
10:37 AM 21.2 °F 13.6 °F 12.2 °F 68% 30.07 in 10.0 mi SSW 5.8 mph - N/A   Overcast
10:57 AM 21.2 °F 12.6 °F 12.2 °F 68% 30.07 in 10.0 mi SSW 6.9 mph - N/A   Overcast
11:17 AM 23.0 °F 17.0 °F 14.0 °F 68% 30.06 in 10.0 mi SSW 4.6 mph - N/A   Overcast
11:37 AM 23.0 °F 14.7 °F 14.0 °F 68% 30.04 in 7.0 mi SSW 6.9 mph - N/A Snow Light Snow
11:57 AM 23.0 °F 13.1 °F 14.0 °F 68% 30.03 in 10.0 mi SSW 9.2 mph - N/A   Overcast
12:17 PM 24.8 °F 16.1 °F 15.8 °F 69% 30.02 in 10.0 mi SW 8.1 mph - N/A   Overcast
12:37 PM 24.8 °F 17.9 °F 15.8 °F 69% 30.02 in 10.0 mi SW 5.8 mph - N/A   Overcast
12:57 PM 24.8 °F 16.1 °F 15.8 °F 69% 30.02 in 10.0 mi SW 8.1 mph - N/A   Overcast
1:17 PM 24.8 °F 15.3 °F 17.6 °F 74% 30.01 in 10.0 mi SW 9.2 mph - N/A   Overcast
1:37 PM 24.8 °F 16.1 °F 17.6 °F 74% 30.01 in 10.0 mi SW 8.1 mph - N/A   Overcast
1:57 PM 26.6 °F 19.1 °F 19.4 °F 74% 30.01 in 7.0 mi SW 6.9 mph - N/A   Overcast
2:17 PM 26.6 °F 19.1 °F 19.4 °F 74% 30.01 in 7.0 mi SW 6.9 mph - N/A   Overcast
2:37 PM 26.6 °F 19.1 °F 21.2 °F 80% 30.01 in 7.0 mi SW 6.9 mph - N/A   Overcast
2:57 PM 28.4 °F 21.2 °F 21.2 °F 74% 30.02 in 7.0 mi WSW 6.9 mph - N/A   Overcast
3:17 PM 28.4 °F 21.2 °F 21.2 °F 74% 30.02 in 7.0 mi WSW 6.9 mph - N/A   Overcast
3:37 PM 28.4 °F 20.4 °F 21.2 °F 74% 30.03 in 7.0 mi SW 8.1 mph - N/A   Overcast
3:57 PM 28.4 °F 23.3 °F 21.2 °F 74% 30.03 in 7.0 mi WSW 4.6 mph - N/A   Overcast
4:17 PM 28.4 °F 22.2 °F 23.0 °F 80% 30.04 in 7.0 mi WSW 5.8 mph - N/A   Overcast
4:37 PM 28.4 °F 24.6 °F 23.0 °F 80% 30.04 in 7.0 mi WSW 3.5 mph - N/A   Overcast
4:57 PM 30.2 °F 24.3 °F 23.0 °F 75% 30.05 in 7.0 mi West 5.8 mph - N/A   Overcast
5:17 PM 30.2 °F 26.7 °F 24.8 °F 80% 30.06 in 5.0 mi West 3.5 mph - N/A   Haze
5:37 PM 30.2 °F 23.4 °F 24.8 °F 80% 30.07 in 7.0 mi West 6.9 mph - N/A   Overcast
5:57 PM 30.2 °F 24.3 °F 24.8 °F 80% 30.08 in 7.0 mi West 5.8 mph - N/A   Overcast
6:17 PM 30.2 °F 24.3 °F 24.8 °F 80% 30.09 in 5.0 mi WSW 5.8 mph - N/A Snow Light Snow
6:37 PM 30.2 °F 25.4 °F 24.8 °F 80% 30.09 in 5.0 mi West 4.6 mph - N/A Snow Light Snow
6:57 PM 30.2 °F 25.4 °F 24.8 °F 80% 30.10 in 5.0 mi WSW 4.6 mph - N/A   Haze
7:17 PM 30.2 °F 25.4 °F 24.8 °F 80% 30.10 in 7.0 mi West 4.6 mph - N/A   Overcast
7:37 PM 30.2 °F 25.4 °F 24.8 °F 80% 30.11 in 5.0 mi West 4.6 mph - N/A   Haze
7:57 PM 30.2 °F 23.4 °F 24.8 °F 80% 30.11 in 7.0 mi West 6.9 mph - N/A   Overcast
8:17 PM 30.2 °F 21.3 °F 24.8 °F 80% 30.11 in 7.0 mi West 10.4 mph 17.3 mph N/A   Overcast
8:37 PM 30.2 °F 22.6 °F 23.0 °F 75% 30.11 in 7.0 mi West 8.1 mph - N/A   Overcast
8:57 PM 30.2 °F 25.4 °F 23.0 °F 75% 30.11 in 7.0 mi West 4.6 mph 16.1 mph N/A   Overcast
9:17 PM 30.2 °F 21.3 °F 21.2 °F 69% 30.11 in 10.0 mi West 10.4 mph 16.1 mph N/A   Overcast
9:37 PM 30.2 °F 21.9 °F 21.2 °F 69% 30.11 in 10.0 mi West 9.2 mph - N/A   Overcast
9:57 PM 30.2 °F 21.9 °F 21.2 °F 69% 30.11 in 10.0 mi West 9.2 mph - N/A   Overcast
10:17 PM 30.2 °F 20.8 °F 21.2 °F 69% 30.11 in 10.0 mi West 11.5 mph - N/A   Overcast
10:37 PM 30.2 °F 22.6 °F 21.2 °F 69% 30.11 in 10.0 mi West 8.1 mph - N/A   Overcast
10:57 PM 28.4 °F 21.2 °F 21.2 °F 74% 30.12 in 10.0 mi West 6.9 mph - N/A   Overcast
11:17 PM 28.4 °F 22.2 °F 21.2 °F 74% 30.11 in 10.0 mi West 5.8 mph - N/A   Overcast
11:37 PM 28.4 °F 21.2 °F 21.2 °F 74% 30.11 in 10.0 mi West 6.9 mph - N/A   Overcast
11:57 PM 28.4 °F 21.2 °F 21.2 °F 74% 30.10 in 10.0 mi WSW 6.9 mph - N/A   Overcast